Waarnemingen

Advertentie
Mijn weer
F3, Nederland (6239): temperatuur & dauwpunt: 15.08.2017 11:00:00 - 21.08.2017 11:00:00 (CEST)F3, Nederland (6239): windsnelheid & windstoten: 15.08.2017 11:00:00 - 21.08.2017 11:00:00 (CEST)F3, Nederland (6239): windrichting: 15.08.2017 11:00:00 - 21.08.2017 11:00:00 (CEST)F3, Nederland (6239): luchtdruk: 15.08.2017 11:00:00 - 21.08.2017 11:00:00 (CEST)F3, Nederland (6239): zicht: 15.08.2017 11:00:00 - 21.08.2017 11:00:00 (CEST)
Datum & Tijd tt [°C] td [°C] ff [km/u] ff [kn] fx [km/u] fx [kn] dd ppp [hPa] vv [km]
21.08.2017 11:00:00 15,3 10,1 15 8 29 16 NW 1022,7 10
21.08.2017 10:00:00 15,5 7,9 26 14 29 16 NW 1022,3 10
21.08.2017 09:00:00 15,5 8,5 28 15 29 16 NW 1022,2 10
21.08.2017 08:00:00 15,5 9,8 31 17 32 18 NW 1021,6 10
21.08.2017 07:00:00 15,4 9,9 31 17 32 18 NW 1021,5 10
21.08.2017 06:00:00 15,3 10,1 31 17 32 18 NW 1020,9 10
21.08.2017 05:00:00 15,4 10,2 29 16 32 18 NW 1021,1 10
21.08.2017 04:00:00 15,5 10,7 31 17 32 18 NW 1021,2 10
21.08.2017 03:00:00 15,5 10,5 37 20 36 19 NW 1021,4 10
21.08.2017 02:00:00 15,5 10,4 35 19 36 19 NW 1021,0 10
21.08.2017 01:00:00 15,4 11,4 34 18 36 19 WNW 1020,9 10
21.08.2017 00:00:00 15,5 11,0 35 19 36 19 NW 1020,7 10
20.08.2017 23:00:00 15,4 11,3 37 20 43 23 NW 1020,5 10
20.08.2017 22:00:00 15,6 11,9 41 22 40 21 WNW 1020,5 10
20.08.2017 21:00:00 15,4 12,1 41 22 40 21 WNW 1020,3 10
20.08.2017 20:00:00 15,0 10,7 48 26 47 25 WNW 1019,7 10
20.08.2017 19:00:00 15,9 11,6 44 24 43 23 WNW 1019,5 10
20.08.2017 18:00:00 15,9 10,9 46 25 43 23 WNW 1019,2 10
20.08.2017 17:00:00 16,0 11,4 42 23 43 23 WNW 1019,1 10
20.08.2017 16:00:00 15,7 11,4 44 24 43 23 WNW 1018,8 10
20.08.2017 15:00:00 15,9 11,5 46 25 43 23 W 1018,5 10
20.08.2017 14:00:00 15,5 12,4 39 21 47 25 WNW 1018,1 10
20.08.2017 13:00:00 16,1 12,5 50 27 47 25 W 1017,3 10
20.08.2017 12:00:00 16,0 11,9 46 25 43 23 W 1016,8 10
20.08.2017 11:00:00 15,9 11,5 42 23 47 25 W 1016,4 10
20.08.2017 10:00:00 15,7 11,5 44 24 47 25 WNW 1015,7 10
20.08.2017 09:00:00 16,1 13,0 46 25 43 23 W 1015,0 9
20.08.2017 08:00:00 15,9 12,7 39 21 40 21 W 1014,2 10
20.08.2017 07:00:00 15,5 12,5 39 21 43 23 W 1013,8 10
20.08.2017 06:00:00 16,0 12,7 42 23 40 21 W 1013,3 10
20.08.2017 05:00:00 16,1 12,0 41 22 43 23 WNW 1012,8 10
20.08.2017 04:00:00 15,1 13,7 52 28 54 29 W 1012,1 3,2
20.08.2017 03:00:00 14,1 12,8 52 28 61 33 W 1011,5 10
20.08.2017 02:00:00 15,8 12,3 59 32 61 33 W 1011,3 10
20.08.2017 01:00:00 16,0 12,1 54 29 58 31 W 1011,5 10
20.08.2017 00:00:00 16,5 11,0 52 28 58 31 WZW 1011,3 10
19.08.2017 23:00:00 16,5 10,6 57 31 54 29 WZW 1011,3 10
19.08.2017 22:00:00 16,2 11,2 52 28 50 27 WZW 1011,4 10
19.08.2017 21:00:00 16,0 9,8 46 25 50 27 W 1011,1 10
19.08.2017 20:00:00 15,8 9,5 48 26 50 27 W 1010,8 10
19.08.2017 19:00:00 14,3 9,5 44 24 58 31 W 1010,6 10
19.08.2017 18:00:00 15,5 10,4 55 30 58 31 W 1010,7 8
19.08.2017 17:00:00 16,1 10,2 54 29 50 27 WZW 1010,5 10
19.08.2017 16:00:00 15,8 10,2 50 27 50 27 W 1010,5 10
19.08.2017 15:00:00 15,8 9,7 54 29 54 29 W 1009,8 10
19.08.2017 14:00:00 15,7 10,3 54 29 54 29 W 1009,1 10
19.08.2017 13:00:00 15,7 10,4 57 31 58 31 W 1008,1 10
19.08.2017 12:00:00 15,6 10,3 57 31 58 31 W 1007,5 10
19.08.2017 11:00:00 14,1 12,4 52 28 54 29 WZW 1007,5 10
19.08.2017 10:00:00 15,6 10,8 46 25 47 25 ZW 1007,1 10
19.08.2017 09:00:00 15,6 10,0 52 28 50 27 WZW 1007,1 10
19.08.2017 08:00:00 15,8 10,2 44 24 43 23 WZW 1006,8 10
19.08.2017 07:00:00 16,0 9,9 41 22 40 21 WZW 1006,7 10
19.08.2017 06:00:00 16,0 8,7 46 25 47 25 W 1006,2 10
19.08.2017 05:00:00 16,1 9,4 42 23 43 23 W 1006,2 10
19.08.2017 04:00:00 16,4 8,8 41 22 40 21 WZW 1006,4 10
19.08.2017 03:00:00 16,5 9,6 41 22 43 23 WZW 1006,5 10
19.08.2017 02:00:00 16,4 10,0 41 22 40 21 WZW 1006,6 10
19.08.2017 01:00:00 16,6 9,6 37 20 40 21 WZW 1006,7 10
19.08.2017 00:00:00 16,8 10,0 39 21 40 21 WZW 1006,4 10
18.08.2017 23:00:00 16,9 10,9 35 19 36 19 ZW 1006,8 10
18.08.2017 22:00:00 16,8 10,1 31 17 32 18 ZW 1007,2 10
18.08.2017 21:00:00 16,7 10,0 31 17 36 19 WZW 1007,1 10
18.08.2017 20:00:00 16,7 10,2 31 17 36 19 WZW 1006,8 10
18.08.2017 19:00:00 16,8 10,7 35 19 36 19 WZW 1006,5 10
18.08.2017 18:00:00 16,5 10,7 39 21 40 21 W 1006,6 10
18.08.2017 17:00:00 16,6 12,1 41 22 40 21 WZW 1006,5 10
18.08.2017 16:00:00 16,9 12,4 37 20 36 19 WZW 1006,3 10
18.08.2017 15:00:00 16,7 12,7 37 20 43 23 WZW 1006,0 10
18.08.2017 14:00:00 16,9 13,2 46 25 43 23 WZW 1006,2 10
18.08.2017 13:00:00 17,2 14,2 44 24 47 25 ZW 1006,1 10
18.08.2017 12:00:00 17,4 14,7 37 20 43 23 ZW 1006,4 10
18.08.2017 11:00:00 17,0 14,2 44 24 47 25 ZW 1006,5 10
18.08.2017 10:00:00 17,0 14,2 46 25 47 25 ZW 1006,5 10
18.08.2017 09:00:00 17,5 14,0 34 18 43 23 ZW 1006,3 10
18.08.2017 08:00:00 17,8 15,2 41 22 40 21 ZZW 1006,4 10
18.08.2017 07:00:00 17,7 15,1 34 18 32 18 ZZW 1006,6 10
18.08.2017 06:00:00 17,8 14,7 34 18 36 19 ZW 1006,6 10
18.08.2017 05:00:00 17,8 15,0 39 21 36 19 ZW 1007,1 10
18.08.2017 04:00:00 17,9 15,7 34 18 36 19 ZW 1007,2 10
18.08.2017 03:00:00 17,6 16,8 28 15 29 16 ZZW 1007,7 10
18.08.2017 02:00:00 17,3 17,1 22 12 25 14 ZZW 1008,2 1,1
18.08.2017 01:00:00 17,5 17,1 21 11 25 14 ZW 1008,5 10
18.08.2017 00:00:00 17,6 17,3 24 13 25 14 ZW 1008,6 6
17.08.2017 23:00:00 17,7 16,8 28 15 29 16 ZZW 1009,0 10
17.08.2017 22:00:00 17,5 16,9 28 15 29 16 Z 1009,2 10
17.08.2017 21:00:00 17,4 16,3 18 10 22 12 ZZW 1009,0 10
17.08.2017 20:00:00 17,4 15,6 24 13 25 14 ZW 1009,0 10
17.08.2017 19:00:00 17,9 15,9 24 13 29 16 ZW 1008,9 10
17.08.2017 18:00:00 17,3 15,8 34 18 50 27 ZW 1009,0 10
17.08.2017 17:00:00 17,4 15,5 35 19 36 19 WZW 1008,7 10
17.08.2017 16:00:00 17,4 15,9 34 18 36 19 WZW 1008,6 10
17.08.2017 15:00:00 17,1 16,1 35 19 43 23 ZZW 1008,6 9
17.08.2017 14:00:00 16,8 15,6 42 23 40 21 ZZW 1008,8 10
17.08.2017 13:00:00 16,2 15,0 42 23 54 29 ZZW 1009,2 4,3
17.08.2017 12:00:00 17,3 15,6 50 27 68 37 Z 1009,4 8
17.08.2017 11:00:00 17,1 14,8 54 29 54 29 Z 1010,0 6
17.08.2017 10:00:00 17,2 14,7 52 28 54 29 Z 1010,8 6
17.08.2017 09:00:00 18,1 15,9 41 22 68 37 ZZO 1011,1 10
17.08.2017 08:00:00 18,2 15,3 39 21 43 23 Z 1011,4 10
17.08.2017 07:00:00 18,1 15,0 42 23 43 23 Z 1011,9 10
17.08.2017 06:00:00 17,9 14,9 41 22 40 21 Z 1012,4 10
17.08.2017 05:00:00 17,9 14,2 41 22 43 23 Z 1013,1 10
17.08.2017 04:00:00 17,8 14,7 39 21 40 21 Z 1014,2 10
17.08.2017 03:00:00 17,6 15,5 37 20 36 19 Z 1014,7 10
17.08.2017 02:00:00 17,6 16,0 37 20 36 19 Z 1015,4 10
17.08.2017 01:00:00 17,8 16,0 35 19 36 19 Z 1016,1 10
17.08.2017 00:00:00 18,2 16,0 37 20 36 19 ZZO 1016,3 10
16.08.2017 23:00:00 18,2 16,1 39 21 40 21 ZZO 1017,1 10
16.08.2017 22:00:00 18,1 15,8 39 21 40 21 ZZO 1017,4 10
16.08.2017 21:00:00 18,1 15,9 34 18 36 19 ZZO 1017,7 10
16.08.2017 20:00:00 18,5 16,0 28 15 29 16 ZZO 1018,3 10
16.08.2017 19:00:00 18,5 16,1 26 14 25 14 ZO 1018,7 10
16.08.2017 18:00:00 18,4 14,2 24 13 25 14 ZO 1018,9 10
16.08.2017 17:00:00 17,8 12,6 21 11 22 12 ZZO 1019,1 10
16.08.2017 16:00:00 17,6 12,1 16 9 18 10 Z 1019,6 10
16.08.2017 15:00:00 17,3 12,1 16 9 18 10 ZZW 1020,0 10
16.08.2017 14:00:00 17,0 11,8 16 9 18 10 ZW 1020,1 10
16.08.2017 13:00:00 16,8 11,7 18 10 22 12 ZW 1020,2 10
16.08.2017 12:00:00 16,8 12,3 16 9 22 12 ZW 1020,2 10
16.08.2017 11:00:00 16,8 12,5 21 11 18 10 WZW 1020,2 10
16.08.2017 10:00:00 16,6 12,9 18 10 18 10 WZW 1019,9 10
16.08.2017 09:00:00 16,6 13,1 16 9 32 18 WZW 1019,4 10
16.08.2017 08:00:00 16,7 13,2 18 10 18 10 W 1018,9 10
16.08.2017 07:00:00 16,8 13,2 21 11 22 12 W 1018,5 10
16.08.2017 06:00:00 16,9 13,7 18 10 22 12 W 1018,1 48
16.08.2017 05:00:00 16,8 13,9 24 13 22 12 W 1017,4 10
16.08.2017 04:00:00 16,8 14,5 24 13 25 14 W 1017,1 10
16.08.2017 03:00:00 16,8 15,0 28 15 29 16 WZW 1017,0 10
16.08.2017 02:00:00 16,9 15,0 31 17 29 16 WZW 1017,0 10
16.08.2017 01:00:00 17,0 14,4 29 16 29 16 W 1016,6 10
16.08.2017 00:00:00 16,9 14,1 28 15 29 16 W 1016,1 10
15.08.2017 23:00:00 16,8 14,0 22 12 22 12 W 1015,9 10
15.08.2017 22:00:00 16,7 13,8 22 12 22 12 WZW 1015,3 10
15.08.2017 21:00:00 16,7 13,9 22 12 25 14 W 1014,5 10
15.08.2017 20:00:00 17,1 15,0 22 12 25 14 ZW 1014,0 10
15.08.2017 19:00:00 16,9 14,7 22 12 22 12 WZW 1013,9 10
15.08.2017 18:00:00 17,1 13,0 21 11 22 12 WZW 1013,8 10
15.08.2017 17:00:00 16,3 13,1 22 12 32 18 WZW 1013,5 2,2
15.08.2017 16:00:00 17,4 15,4 26 14 29 16 ZW 1013,4 10
15.08.2017 15:00:00 17,7 16,5 21 11 22 12 ZW 1013,1 10
15.08.2017 14:00:00 18,5 16,6 24 13 22 12 Z 1013,1 9
15.08.2017 13:00:00 18,2 16,2 15 8 18 10 ZZW 1013,1 10
15.08.2017 12:00:00 18,0 16,6 22 12 25 14 ZW 1013,0 10
15.08.2017 11:00:00 18,3 16,7 24 13 25 14 ZZW 1012,8 10

tt = temperatuur
td = dauwpunt
ff = windsnelheid
fx = windstoten
dd = windrichting
ppp = luchtdruk
vv = zicht

Weerstations in de omgeving